Date,TemperatureHighF,TemperatureAvgF,TemperatureLowF,DewpointHighF,DewpointAvgF,DewpointLowF,HumidityHigh,HumidityAvg,HumidityLow,PressureMaxIn,PressureMinIn,WindSpeedMaxMPH,WindSpeedAvgMPH,GustSpeedMaxMPH,PrecipitationSumIn
2013-8-11,78,72,65,62,59,55,90,64,45,30.06,29.99,1,0,5,0.00
2013-8-12,81,70,65,68,65,61,97,84,58,30.01,29.90,0,0,4,0.00
2013-8-13,70,67,65,69,66,64,99,97,91,29.90,29.66,0,0,0,0.14
2013-8-14,72,66,58,65,56,53,98,74,53,29.96,29.66,3,1,9,0.00
2013-8-15,76,63,54,59,55,50,94,77,43,30.10,29.96,1,0,7,0.00
2013-8-16,79,68,58,62,58,52,98,74,40,30.17,30.08,0,0,4,0.00
2013-8-17,82,68,58,65,61,56,95,79,45,30.24,30.17,1,0,5,0.00
2013-8-18,74,66,60,66,61,58,97,86,67,30.24,30.07,0,0,0,0.02
2013-8-19,78,68,60,69,63,57,94,83,60,30.08,29.96,1,0,4,0.01
2013-8-20,84,72,63,68,64,62,96,77,52,30.08,29.97,1,0,4,0.00
2013-8-21,87,74,64,70,66,62,95,76,44,30.12,30.02,0,0,3,0.00
2013-8-22,78,71,68,74,70,67,99,95,82,30.02,29.82,1,0,7,0.24
2013-8-23,79,70,64,68,64,59,99,81,54,30.07,29.80,3,0,8,0.01
2013-8-24,76,65,57,60,56,52,90,73,46,30.31,30.07,2,0,8,0.00
2013-8-25,81,67,55,64,57,46,97,73,31,30.34,30.18,1,0,7,0.00
2013-8-26,78,70,66,68,64,61,98,84,67,30.19,29.87,1,0,5,0.48
2013-8-27,79,71,68,73,69,67,99,94,78,29.87,29.77,2,0,7,0.41
2013-8-28,84,72,67,74,69,66,99,92,70,29.88,29.82,1,0,5,0.00
2013-8-29,72,67,61,68,65,59,99,93,83,30.02,29.87,2,0,6,0.00
2013-8-30,77,67,59,70,64,58,98,91,80,30.00,29.83,1,0,7,0.00
2013-8-31,79,72,68,73,70,68,99,94,83,29.83,29.77,1,0,4,0.00